Weather History for Anaktuvuk Pass, AK

Change the Weather History Date:

Friday, April 11, 2014

  Actual Average Record
Temperature  
Mean Temperature 0 °F -  
Max Temperature 8 °F 15 °F 30 °F (1997)
Min Temperature -9 °F 2 °F -18 °F (2002)
Degree Days  
Heating Degree Days 66    
Moisture  
Dew Point -11 °F    
Average Humidity 55    
Maximum Humidity 71    
Minimum Humidity 43    
Precipitation  
Precipitation 0.00 in - - ()
Sea Level Pressure  
Sea Level Pressure 30.05 in    
Wind  
Wind Speed 4 mph (SSW)    
Max Wind Speed 17 mph    
Max Gust Speed 23 mph    
Visibility 10 miles    
Events      
Averages and records for this station are not official NWS values.
T = Trace of Precipitation, MM = Missing Value Source: NWS Daily Summary

Daily Weather History Graph

Daily Weather History Graph

Search for Another Location

Airport:

Trip Planner

Search our weather history database for the weather conditions in past years. The results will help you decide how hot, cold, wet, or windy it might be!

Date:

Astronomy

Apr. 11, 2014 Rise Set
Actual Time 6:31 AM AKDT 9:46 PM AKDT
Civil Twilight 5:25 AM AKDT 10:54 PM AKDT
Nautical Twilight 3:33 AM AKDT 12:52 AM AKDT
Astronomical Twilight Sun does not rise Sun does not rise
Moon 5:12 PM AKDT (4/11) 6:07 AM AKDT (4/11)
Length of Visible Light 17h 29m
Length of Day
15h 15m
Waxing Gibbous, 88% of the Moon is Illuminated
Apr 11
Waxing Gibbous
Apr 14
Full
Apr 21
Last Quarter
Apr 28
New
May 6
First Quarter

Hourly Weather History & Observations

Time (AKDT) Temp. Windchill Dew Point Humidity Pressure Visibility Wind Dir Wind Speed Gust Speed Precip Events Conditions
12:16 AM 1.4 °F - -14.8 °F 47% 29.88 in 10.0 mi Calm Calm - N/A   Mostly Cloudy
12:36 AM -0.4 °F - -14.8 °F 51% 29.89 in 10.0 mi Calm Calm - N/A   Overcast
12:56 AM 1.4 °F -11.3 °F -11.2 °F 56% 29.89 in 10.0 mi South 6.9 mph - N/A   Overcast
1:16 AM 1.4 °F -8.3 °F -14.8 °F 47% 29.90 in 10.0 mi South 4.6 mph - N/A   Overcast
1:36 AM 1.4 °F - -14.8 °F 47% 29.91 in 10.0 mi Calm Calm - N/A   Overcast
1:56 AM 1.4 °F - -14.8 °F 47% 29.92 in 10.0 mi Calm Calm - N/A   Overcast
2:16 AM -0.4 °F - -14.8 °F 51% 29.92 in 10.0 mi Calm Calm - N/A   Overcast
2:36 AM -0.4 °F -8.3 °F -14.8 °F 51% 29.93 in 10.0 mi NW 3.5 mph - N/A   Mostly Cloudy
2:56 AM -2.2 °F - -16.6 °F 50% 29.94 in 10.0 mi Calm Calm - N/A   Overcast
3:16 AM -0.4 °F - -14.8 °F 51% 29.95 in 5.0 mi Calm Calm - N/A   Overcast
3:36 AM -2.2 °F - -14.8 °F 55% 29.95 in 8.0 mi Calm Calm - N/A   Mostly Cloudy
3:56 AM -4.0 °F - -14.8 °F 60% 29.95 in 8.0 mi Calm Calm - N/A   Scattered Clouds
4:16 AM -5.8 °F - -18.4 °F 55% 29.96 in 10.0 mi Calm Calm - N/A   Clear
4:36 AM -7.6 °F - -20.2 °F 54% 29.97 in 10.0 mi Calm Calm - N/A   Clear
4:56 AM -7.6 °F - -20.2 °F 54% 29.97 in 10.0 mi Calm Calm - N/A   Partly Cloudy
5:16 AM -7.6 °F - -18.4 °F 59% 29.98 in 10.0 mi Calm Calm - N/A   Partly Cloudy
5:36 AM -7.6 °F - -20.2 °F 54% 29.98 in 10.0 mi Calm Calm - N/A   Partly Cloudy
5:56 AM -7.6 °F - -16.6 °F 65% 29.99 in 5.0 mi Calm Calm - N/A   Mostly Cloudy
6:16 AM -9.4 °F -18.6 °F -16.6 °F 71% 29.99 in 5.0 mi NE 3.5 mph - N/A   Mostly Cloudy
6:36 AM -7.6 °F - -18.4 °F 59% 30.00 in 9.0 mi Calm Calm - N/A   Clear
6:56 AM -7.6 °F - -14.8 °F 71% 30.01 in 10.0 mi Calm Calm - N/A   Clear
7:16 AM -7.6 °F - -18.4 °F 59% 30.02 in 10.0 mi Calm Calm - N/A   Clear
7:36 AM -7.6 °F - -18.4 °F 59% 30.02 in 10.0 mi Calm Calm - N/A   Clear
7:56 AM -7.6 °F - -18.4 °F 59% 30.03 in 10.0 mi Calm Calm - N/A   Clear
8:16 AM -7.6 °F - -18.4 °F 59% 30.04 in 10.0 mi Calm Calm - N/A   Clear
8:36 AM -7.6 °F - -16.6 °F 65% 30.05 in 10.0 mi Calm Calm - N/A   Clear
8:56 AM -5.8 °F - -14.8 °F 65% 30.06 in 10.0 mi Calm Calm - N/A   Clear
9:16 AM -4.0 °F - -16.6 °F 55% 30.06 in 10.0 mi Calm Calm - N/A   Clear
9:36 AM -5.8 °F - -16.6 °F 60% 30.06 in 10.0 mi Calm Calm - N/A   Clear
9:56 AM -2.2 °F - -14.8 °F 55% 30.07 in 10.0 mi Calm Calm - N/A   Clear
10:16 AM -2.2 °F - -13.0 °F 60% 30.08 in 7.0 mi Calm Calm - N/A   Clear
10:36 AM -0.4 °F -8.3 °F -11.2 °F 60% 30.08 in 10.0 mi SSW 3.5 mph - N/A   Clear
10:56 AM -2.2 °F -15.6 °F -14.8 °F 55% 30.09 in 10.0 mi SSW 6.9 mph - N/A   Clear
11:16 AM -0.4 °F -12.0 °F -14.8 °F 51% 30.09 in 10.0 mi SSW 5.8 mph - N/A   Clear
11:36 AM -0.4 °F -12.0 °F -11.2 °F 60% 30.10 in 10.0 mi SSW 5.8 mph - N/A   Clear
11:56 AM 1.4 °F -11.3 °F -11.2 °F 56% 30.10 in 10.0 mi SSW 6.9 mph - N/A   Clear
12:16 PM 1.4 °F -12.5 °F -9.4 °F 61% 30.10 in 10.0 mi SSW 8.1 mph - N/A   Clear
12:36 PM 3.2 °F -10.3 °F -9.4 °F 56% 30.10 in 10.0 mi SSW 8.1 mph - N/A   Clear
12:56 PM 3.2 °F -13.1 °F -9.4 °F 56% 30.11 in 10.0 mi SSW 11.5 mph - N/A   Clear
1:16 PM 5.0 °F -11.6 °F -7.6 °F 56% 30.11 in 10.0 mi South 12.7 mph - N/A   Clear
1:36 PM 6.8 °F -5.9 °F -7.6 °F 52% 30.12 in 10.0 mi SSW 8.1 mph - N/A   Clear
1:56 PM 6.8 °F -9.3 °F -7.6 °F 52% 30.11 in 10.0 mi SW 12.7 mph - N/A   Clear
2:16 PM 6.8 °F -7.8 °F -5.8 °F 56% 30.12 in 10.0 mi SW 10.4 mph - N/A   Clear
2:36 PM 8.6 °F -7.0 °F -5.8 °F 52% 30.12 in 10.0 mi South 12.7 mph - N/A   Clear
2:56 PM 8.6 °F -6.3 °F -5.8 °F 52% 30.12 in 10.0 mi SSW 11.5 mph - N/A   Clear
3:16 PM 8.6 °F -4.7 °F -5.8 °F 52% 30.12 in 10.0 mi SSW 9.2 mph - N/A   Clear
3:36 PM 8.6 °F -7.0 °F -5.8 °F 52% 30.12 in 10.0 mi SW 12.7 mph 16.1 mph N/A   Clear
3:56 PM 8.6 °F -5.5 °F -5.8 °F 52% 30.12 in 10.0 mi SW 10.4 mph - N/A   Clear
4:16 PM 8.6 °F -7.0 °F -5.8 °F 52% 30.11 in 10.0 mi SSW 12.7 mph - N/A   Clear
4:36 PM 8.6 °F -8.3 °F -4.0 °F 57% 30.11 in 10.0 mi South 15.0 mph - N/A   Clear
4:56 PM 8.6 °F -7.7 °F -4.0 °F 57% 30.11 in 10.0 mi SW 13.8 mph - N/A   Clear
5:16 PM 8.6 °F -9.5 °F -5.8 °F 52% 30.11 in 10.0 mi SW 17.3 mph 23.0 mph N/A   Clear
5:36 PM 8.6 °F -9.5 °F -5.8 °F 52% 30.11 in 10.0 mi SW 17.3 mph 20.7 mph N/A   Clear
5:56 PM 8.6 °F -8.3 °F -5.8 °F 52% 30.11 in 10.0 mi SW 15.0 mph - N/A   Clear
6:16 PM 8.6 °F -7.7 °F -5.8 °F 52% 30.10 in 10.0 mi SW 13.8 mph - N/A   Clear
6:36 PM 8.6 °F -5.5 °F -5.8 °F 52% 30.10 in 10.0 mi South 10.4 mph - N/A   Clear
6:56 PM 8.6 °F -7.0 °F -5.8 °F 52% 30.10 in 10.0 mi SSE 12.7 mph - N/A   Clear
7:16 PM 8.6 °F -6.3 °F -5.8 °F 52% 30.10 in 10.0 mi South 11.5 mph - N/A   Clear
7:36 PM 8.6 °F -2.6 °F -5.8 °F 52% 30.10 in 10.0 mi South 6.9 mph - N/A   Clear
7:56 PM 8.6 °F -6.3 °F -5.8 °F 52% 30.10 in 10.0 mi SW 11.5 mph - N/A   Clear
8:16 PM 6.8 °F -7.8 °F -7.6 °F 52% 30.10 in 10.0 mi South 10.4 mph - N/A   Clear
8:36 PM 6.8 °F -6.9 °F -7.6 °F 52% 30.10 in 10.0 mi SSW 9.2 mph - N/A   Clear
8:56 PM 6.8 °F -6.9 °F -7.6 °F 52% 30.11 in 10.0 mi South 9.2 mph - N/A   Clear
9:16 PM 5.0 °F -6.9 °F -9.4 °F 52% 30.11 in 10.0 mi SSW 6.9 mph - N/A   Clear
9:36 PM 6.8 °F -10.0 °F -4.0 °F 61% 30.11 in 10.0 mi SSW 13.8 mph - N/A   Clear
9:56 PM 6.8 °F -8.6 °F -9.4 °F 48% 30.11 in 10.0 mi South 11.5 mph - N/A   Clear
10:16 PM 5.0 °F -10.8 °F -11.2 °F 47% 30.11 in 10.0 mi South 11.5 mph - N/A   Clear
10:36 PM 6.8 °F -9.3 °F -7.6 °F 52% 30.11 in 10.0 mi South 12.7 mph 18.4 mph N/A   Clear
10:56 PM 6.8 °F -10.0 °F -9.4 °F 48% 30.11 in 10.0 mi SSW 13.8 mph - N/A   Clear
11:16 PM 6.8 °F -7.8 °F -9.4 °F 48% 30.11 in 10.0 mi South 10.4 mph - N/A   Clear
11:36 PM 3.2 °F -10.3 °F -14.8 °F 43% 30.11 in 10.0 mi South 8.1 mph - N/A   Clear
11:56 PM 5.0 °F -10.8 °F -7.6 °F 56% 30.11 in 10.0 mi South 11.5 mph - N/A   Clear